Nashville, TN

9:00 PM CDT on August 27, 2016 (GMT -0500)
Nashville International

Weather History for KBNA - April, 2012

Change the Weather History Date:

Saturday, April 21, 2012

  Actual Average Record
Temperature  
Mean Temperature 51 °F 61 °F  
Max Temperature 54 °F 72 °F 89 °F (1963)
Min Temperature 48 °F 49 °F 29 °F (1983)
Degree Days  
Heating Degree Days 14    
Month to date heating degree days 115  
Since 1 July heating degree days 2781  
Cooling Degree Days 0    
Month to date cooling degree days 38  
Year to date cooling degree days 99  
Moisture  
Dew Point 46 °F    
Average Humidity 85    
Maximum Humidity 96    
Minimum Humidity 74    
Precipitation  
Precipitation 0.57 in 0.14 in 2.15 in (1984)
Month to date precipitation 2.42 2.61  
Year to date precipitation 13.47 14.41  
Snow  
Snow 0.00 in - 0.00 in (2002)
Month to date snowfall 0.0  
Since 1 July snowfall 0.4  
Snow Depth 0.00 in    
Sea Level Pressure  
Sea Level Pressure 29.90 in    
Wind  
Wind Speed 8 mph (NNW)    
Max Wind Speed 15 mph    
Max Gust Speed 21 mph    
Visibility 8 miles    
Events Rain    
T = Trace of Precipitation, MM = Missing Value Source: NWS Daily Summary

Daily Weather History Graph

Daily Weather History Graph

Search for Another Location

Airport or City:

Trip Planner

Search our weather history database for the weather conditions in past years. The results will help you decide how hot, cold, wet, or windy it might be!

Date:

Astronomy

Apr. 21, 2012 Rise Set
Actual Time 6:05 AM CDT 7:26 PM CDT
Civil Twilight 5:38 AM CDT 7:52 PM CDT
Nautical Twilight 5:06 AM CDT 8:25 PM CDT
Astronomical Twilight 4:32 AM CDT 8:58 PM CDT
Moon 6:02 AM CDT (4/21) 8:04 PM CDT (4/21)
Length of Visible Light 14h 14m
Length of Day
13h 20m
New Moon, 0% of the Moon is Illuminated
Apr 21
New Moon
Apr 29
First Quarter
May 5
Full
May 12
Last Quarter
May 20
New

Hourly Weather History & Observations

Time (CDT) Temp. Dew Point Humidity Pressure Visibility Wind Dir Wind Speed Gust Speed Precip Events Conditions
12:53 AM 54.0 °F 52.0 °F 93% 29.86 in 4.0 mi NNW 11.5 mph - 0.10 in Rain Rain
1:53 AM 51.8 °F 50.0 °F 94% 29.87 in 2.5 mi North 8.1 mph - N/A Rain Heavy Rain
2:10 AM 51.8 °F 50.0 °F 94% 29.87 in 5.0 mi North 6.9 mph - 0.12 in Rain Rain
2:53 AM 51.1 °F 48.9 °F 92% 29.86 in 10.0 mi NNW 6.9 mph - 0.17 in   Overcast
3:26 AM 50.0 °F 46.4 °F 87% 29.87 in 9.0 mi NNW 8.1 mph - 0.01 in Rain Light Rain
3:49 AM 50.0 °F 46.4 °F 87% 29.87 in 6.0 mi NNW 8.1 mph - 0.03 in Rain Light Rain
3:53 AM 50.0 °F 46.9 °F 89% 29.86 in 6.0 mi NNW 6.9 mph - 0.04 in Rain Light Rain
4:27 AM 48.2 °F 46.4 °F 93% 29.88 in 3.0 mi North 10.4 mph - 0.07 in Rain Heavy Rain
4:44 AM 48.2 °F 46.4 °F 93% 29.88 in 6.0 mi NNW 10.4 mph - 0.13 in Rain Rain
4:53 AM 48.9 °F 45.0 °F 86% 29.87 in 7.0 mi NNW 9.2 mph 18.4 mph 0.14 in Rain Rain
5:35 AM 48.2 °F 44.6 °F 87% 29.89 in 10.0 mi NNW 5.8 mph - 0.04 in Rain Light Rain
5:53 AM 48.0 °F 45.0 °F 89% 29.88 in 7.0 mi NNW 6.9 mph - 0.07 in Rain Light Rain
6:53 AM 48.9 °F 46.0 °F 90% 29.89 in 10.0 mi NNW 5.8 mph - 0.03 in   Overcast
7:53 AM 48.9 °F 46.0 °F 90% 29.90 in 10.0 mi NNW 8.1 mph - N/A   Overcast
8:53 AM 50.0 °F 46.0 °F 86% 29.89 in 10.0 mi North 9.2 mph - 0.01 in Rain Light Rain
9:53 AM 48.9 °F 45.0 °F 86% 29.91 in 10.0 mi NNW 5.8 mph - 0.00 in   Overcast
10:53 AM 48.9 °F 45.0 °F 86% 29.93 in 5.0 mi North 9.2 mph - N/A   Overcast
11:53 AM 48.9 °F 45.0 °F 86% 29.94 in 4.0 mi North 10.4 mph - N/A   Overcast
12:53 PM 48.9 °F 44.1 °F 83% 29.93 in 5.0 mi North 12.7 mph 19.6 mph N/A   Haze
1:23 PM 50.0 °F 44.6 °F 82% 29.93 in 9.0 mi North 11.5 mph - N/A   Overcast
1:53 PM 50.0 °F 44.1 °F 80% 29.93 in 8.0 mi NNW 9.2 mph - N/A   Overcast
2:53 PM 51.1 °F 44.1 °F 77% 29.92 in 7.0 mi NW 8.1 mph - N/A   Overcast
3:53 PM 51.1 °F 44.1 °F 77% 29.91 in 8.0 mi NNW 10.4 mph - N/A   Overcast
4:53 PM 51.1 °F 44.1 °F 77% 29.91 in 10.0 mi NNW 10.4 mph - N/A   Overcast
5:53 PM 51.1 °F 44.1 °F 77% 29.92 in 10.0 mi North 11.5 mph - N/A   Overcast
6:53 PM 50.0 °F 44.1 °F 80% 29.91 in 10.0 mi North 9.2 mph - N/A   Overcast
7:53 PM 51.1 °F 44.1 °F 77% 29.93 in 10.0 mi NNW 6.9 mph - N/A   Overcast
8:53 PM 50.0 °F 44.1 °F 80% 29.95 in 10.0 mi North 5.8 mph - N/A   Overcast
9:53 PM 50.0 °F 44.1 °F 80% 29.95 in 10.0 mi North 8.1 mph - N/A   Overcast
10:21 PM 50.0 °F 44.6 °F 82% 29.94 in 10.0 mi North 8.1 mph - N/A   Overcast
10:53 PM 50.0 °F 44.1 °F 80% 29.94 in 10.0 mi North 6.9 mph - N/A   Overcast
11:53 PM 50.0 °F 43.0 °F 77% 29.93 in 10.0 mi North 8.1 mph - N/A   Overcast